{"data":{"norad_id":67628,"epoch":"2026-09-19T00:35:13.312896Z","epoch_age_seconds":196399,"freshness":"STALE","line1":"1 67628U 26020M   26262.02445964  .00012595  00000+0  46619-3 0  9991","line2":"2 67628  43.0020 127.7460 0000933 317.8681  42.2099 15.27596909 35687","mean_motion":15.27596909,"eccentricity":9.33e-5,"inclination_deg":43.002,"raan_deg":127.746,"arg_perigee_deg":317.8681,"mean_anomaly_deg":42.2099,"bstar":0.00046619,"rev_number":3568,"period_min":94.26570527317,"perigee_km":482.35832093883,"apogee_km":483.63860881658,"semimajor_km":6861.1354648777,"source":"CELESTRAK","updated_at":"2026-09-20T09:00:43.613236Z"}}